Regional Weather Roundup
Issued by NWS

Home | Current Version | Previous Version | Graphics & Text | Print | Product List | Glossary Off
Versions: 1 2 3 4 5 6 7 8 9 10 11 12 13 14 15 16 17 18 19 20 21 22 23 24 25 26 27 28 29 30 31 32 33 34 35 36 37 38 39 40 41 42 43 44 45 46 47 48 49 50

000
ASUS43 KFSD 160310
RWRSD

WEATHER ROUNDUP FOR SOUTH DAKOTA
NATIONAL WEATHER SERVICE SIOUX FALLS SD
1000 PM CDT MON SEP 15 2014

NOTE: "FAIR" INDICATES FEW OR NO CLOUDS BELOW 12,000 FEET WITH NO
SIGNIFICANT WEATHER AND/OR OBSTRUCTIONS TO VISIBILITY.


SDZ001>005-009-010-012>017-160400-
NORTHWEST AND NORTH CENTRAL SOUTH DAKOTA

CITY           SKY/WX    TMP DP  RH WIND       PRES   REMARKS
BUFFALO          N/A     52  42  69 SE8       30.04S
FAITH            N/A     52  40  63 SE14      30.12F
MOBRIDGE       CLEAR     48  42  80 SE7       30.14S
$$

SDZ012>016-024>037-041>051-057-063-072>074-160400-
SOUTHWEST AND SOUTH CENTRAL SOUTH DAKOTA

CITY           SKY/WX    TMP DP  RH WIND       PRES   REMARKS
RAPID CTY ARPT CLEAR     53  43  68 S5        30.12S
PIERRE         CLEAR     44  38  79 E5        30.17R
CUSTER         CLEAR     48  41  76 CALM      30.22S
ELLSWORTH AFB  CLEAR     54  44  70 S10       30.11S
PHILIP         CLEAR     51  41  68 E8        30.14S
PINE RIDGE     CLEAR     60  42  51 S12G17    30.16S
WINNER         FAIR      50  40  68 SE10      30.21S
$$

SDZ004>011-016>023-039-040-160400-
NORTHEAST SOUTH DAKOTA

CITY           SKY/WX    TMP DP  RH WIND       PRES   REMARKS
ABERDEEN       CLEAR     43  38  82 S7        30.19S
WATERTOWN      CLEAR     46  39  76 S3        30.22R
SISSETON         N/A     43  39  86 SW6       30.18S
$$

SDZ017-020-022-023-036>040-048>070-160400-
SOUTHEAST SOUTH DAKOTA

CITY           SKY/WX    TMP DP  RH WIND       PRES   REMARKS
SIOUX FALLS    CLEAR     48  44  86 CALM      30.24R
HURON          CLEAR     49  37  63 S3        30.22R
CHAMBERLAIN    CLEAR     44  38  82 SE7       30.21F
MITCHELL       CLEAR     51  45  79 S5        30.24R
YANKTON        CLEAR     52  43  71 CALM      30.25R
$$

ABBREVIATIONS USED IN REMARKS
   TC - TEMPERATURE IN CELSIUS
  WCI - WIND CHILL INDEX
   HX - HEAT INDEX
  VSB - VISIBILITY



USA.gov is the U.S. government's official web portal to all federal, state and local government web resources and services.